DMSP 5D-2 F13 DEB, 42262

Orbit data source: Space-Track

DMSP 5D-2 F13 DEB, 42262 is space debris in SSO originally from a launch on Fri, 24 Mar 1995 UTC launched from the Air Force Western Test Range (AFWTR). Debris objects in space refer to the collection of defunct objects orbiting the Earth. Examples of debris include non-operational satellites, rocket bodies, and fragments generated from explosions, collisions, or faulty payload assembly.

Loading next visibility...
Identifier
42262, 1995-015GC
Orbit
SSO
Country
Flag of USUS
Related business
Manufacturer
Unknown
Mission
Spacecraft
Bus & Motor
Unknown
Mass
Unknown
Launch date (UTC)
1995-03-24 (31 years ago)
Launch vehicle
Unknown
Launch site
Air Force Western Test Range (AFWTR)
Object type
Payload
Rocket body
Debris
Shape & HBR
Unknown shape, 0.1 m
Radar Cross Section
Small (<0.1 m²)

Expand to show TLE details & history
Last TLE update: 14 hours ago

TLE from 14 hours ago
0 DMSP 5D-2 F13 DEB
1 42262U 95015GC  26035.11214628  .00019075  00000-0  31704-2 0  9996
2 42262  98.5235  99.4881 0025981  86.7104 273.7072 14.69932219566809
Epoch: 2026-02-04T02:41Z
TLE epoch observation values (Epoch: 2026-02-04T02:41:29.438Z)
Latitude
-0.00005°
Longitude
-75.16796°
Altitude
663.138 km
Speed
7.526 km/s
True Right ascension
06h 37m 57s
True Declination
0° 00' 00"
Sunlit
Object was in full shadow at epoch
Visualization orbit readout
Latitude
Unknown
Longitude
Unknown
Altitude
Unknown
Speed
Unknown
Apparent Right ascension
Unknown
Apparent Declination
Unknown
Sunlit
N/A
Visualization observer readout
Local Sidereal Time
18:52:52
Azimuth
Unknown
Elevation
Unknown
Doppler factor
Unknown
Orbital elements
Apogee altitude
676.649 km
Perigee altitude
640.086 km
Semi-major axis
7,036.505 km
Eccentricity
0.0026
Inclination
98.5235°
RAAN
99.4881°
Arg. of periapsis
86.7104°
True anomaly
273.41004°
Mean anomaly
273.7072°
Eccentric anomaly
273.55863°
Mean motion
3.67712 °/min
Orbital period
97.9 mins
BSTAR
0.0031704
Loading maneuver chart data...
Computing Atmospheric mass density...

Documentation

Showing up to 5 results
|